Zurück zum Katalog

DELTA 1 DEB

AktivSSO
NORAD 7163·DEBRIS·🇺🇸 United States

Gestartet Nov 6, 1973 von Vandenberg Space Force Base

Loading…

Nächste Überflüge (nächste 24 Stunden)

TLE

AktuellSource: Space-Track

Epoche: Sep 14, 2026, 13:05 UTC

1 07163U 73086EB  26257.54562916 -.00000033  00000-0  10746-3 0  9999
2 07163 102.4483 283.9758 0064076 334.6913 179.8149 12.31357941374925

Verfolge DELTA 1 DEB in Echtzeit mit AllMySat

Download on the App Store